Regional Weather Roundup
Issued by NWS Columbia, SC

Home | Current Version | Previous Version | Text Only | Print | Product List | Glossary On
Versions: 1 2 3 4 5 6 7 8 9 10 11 12 13 14 15 16 17 18 19 20 21 22 23 24 25 26 27 28 29 30 31 32 33 34 35 36 37 38 39 40 41 42 43 44 45 46 47 48 49 50
000
ASUS42 KCAE 290110
RWRCAE
REGIONAL WEATHER ROUNDUP
NATIONAL WEATHER SERVICE COLUMBIA SC
800 PM EST SUN DEC 28 2014

NOTE: "FAIR" INDICATES FEW OR NO CLOUDS BELOW 12,000 FEET WITH NO
SIGNIFICANT WEATHER AND/OR OBSTRUCTIONS TO VISIBILITY.

NOT ALL STATIONS ARE QUALITY CONTROLLED BY THE NATIONAL
WEATHER SERVICE. USE DATA WITH CAUTION...ESPECIALLY
DEWPOINT OBSERVATIONS.

SCZ001>056-GAZ040-063>065-077-290200-
...UPSTATE SOUTH CAROLINA...

CITY           SKY/WX    TMP DP  RH WIND       PRES   REMARKS
ANDERSON       CLOUDY    56  55  97 S3        30.06R
LIBERTY        CLOUDY    56  37  49 MISG      30.06R HAZE
SPARTANBURG    CLOUDY    59 N/A N/A SW3       30.05S
CLEMSON        CLOUDY    58  54  86 CALM      30.07R FOG
GREENVILLE     CLOUDY    56  54  93 SW5       30.06S FOG
GREENWOOD      CLOUDY    58  56  93 SW3       30.08S
GREER          CLOUDY    56  55  97 SW8       30.05R FOG
ROCK HILL      CLOUDY    57  56  96 SW6       30.06R
CHESTER        CLOUDY    59  57  94 SW3       30.07R
LAURENS        CLOUDY    55  55 100 SW6       30.06R


...CENTRAL SOUTH CAROLINA...

CITY           SKY/WX    TMP DP  RH WIND       PRES   REMARKS
COLUMBIA APT   PTCLDY    61  59  93 W5        30.07R
COLUMBIA OWENS CLOUDY    63  58  83 W6        30.08R
DARLINGTON     CLOUDY    63  57  82 SW5       30.08R
FLORENCE       CLOUDY    66  60  81 W6        30.06R
MCENTIRE ANGB  PTCLDY    59  58  96 NW5       30.07S
ORANGEBURG     MOCLDY    64  59  83 NW5       30.07R
SUMTER SHAW    CLOUDY    63  60  88 W3        30.06R
NEWBERRY       CLOUDY    57 N/A N/A SW5       30.10S
AIKEN          FAIR      59  59 100 W3        30.10F
BARNWELL       CLOUDY    64  63  94 CALM      30.08S
MANNING        FAIR      64  64 100 CALM      30.07R
CAMDEN         CLOUDY    61  57  88 W7        30.08S
LANCASTER      CLOUDY    57  57 100 SW5       30.07R
WINNSBORO      CLOUDY    59  59 100 SW6       30.06F


...EASTERN AND COASTAL SOUTH CAROLINA...

CITY           SKY/WX    TMP DP  RH WIND       PRES   REMARKS
N MYRTLE BCH   CLOUDY    63  60  90 CALM      30.06R
CONWAY         CLOUDY    68  63  83 CALM      30.07R
MARION         CLOUDY    66  61  82 W5        30.07R
HARTSVILLE     CLOUDY    63  63 100 W3        30.08R
FLORENCE       CLOUDY    66  60  81 W6        30.06R
DARLINGTON     CLOUDY    63  57  82 SW5       30.08R
CHARLESTON APT MOCLDY    64  62  93 S9        30.07S
WALTERBORO     MOCLDY    66 N/A N/A S5        30.08R
BEAUFORT       MOCLDY    62  60  93 CALM      30.08R


...EASTERN GEORGIA...

CITY           SKY/WX    TMP DP  RH WIND       PRES   REMARKS
AUGUSTA BUSH F PTCLDY    59  57  93 CALM      30.06F
AUGUSTA DANIEL CLOUDY    64  60  87 NW3       30.07F
THOMSON        CLOUDY    62  62 100 CALM      30.11S
WASHINGTON     CLOUDY    61 N/A N/A CALM      30.07S
CLAXTON        MOCLDY    63  63 100 CALM      30.07S
SYLVANIA       MOCLDY    63  63  99 CALM      30.08R
STATESBORO     PTCLDY    60  60 100 CALM      30.07R
SAVANNAH       MOCLDY    69  63  81 CALM      30.07R


...SOUTHERN NORTH CAROLINA...

CITY           SKY/WX    TMP DP  RH WIND       PRES   REMARKS
CHARLOTTE      MOCLDY    54  52  93 S3        30.06R
MONROE         CLOUDY    58  56  93 S5        30.05R
WADESBORO      MOCLDY    58  57  96 S3        30.05S
ROCKINGHAM     CLOUDY    59  59  99 CALM      30.05F FOG
RUTHERFORDTON  CLOUDY    55  54  99 CALM      30.06R
ASHEVILLE      MOCLDY    51  47  86 N13       30.08R

$$


USA.gov is the U.S. government's official web portal to all federal, state and local government web resources and services.